Columbia Owens, SC

4:13 AM EDT on June 20, 2018 (GMT -0400)
Columbia Owens Downtown

Weather History for KCUB - August, 2017

Change the Weather History Date:

Sunday, August 13, 2017

  Actual Average Record
Temperature  
Mean Temperature 84 °F 82 °F  
Max Temperature 90 °F 91 °F 101 °F (2007)
Min Temperature 77 °F 72 °F 66 °F (2006)
Degree Days  
Heating Degree Days 0 0  
Month to date heating degree days 0 0  
Since 1 June heating degree days 0 0  
Since 1 July heating degree days 0 0  
Cooling Degree Days 19 17  
Month to date cooling degree days 213 222  
Year to date cooling degree days 1768 1538  
Since 1 June cooling degree days 1241 1202  
Growing Degree Days 34 (Base 50)    
Moisture  
Dew Point 76 °F    
Average Humidity 86    
Maximum Humidity 97    
Minimum Humidity 64    
Precipitation  
Precipitation 1.05 in 0.16 in 2.30 in (2008)
Month to date precipitation 2.07 2.30  
Year to date precipitation 35.81 29.21  
Sea Level Pressure  
Sea Level Pressure 29.94 in    
Wind  
Wind Speed 1 mph (SSE)    
Max Wind Speed 22 mph    
Max Gust Speed 30 mph    
Visibility 8 miles    
Events Rain , Thunderstorm    
T = Trace of Precipitation, MM = Missing Value Source: NWS Daily Summary

Daily Weather History Graph

Daily Weather History Graph

Search for Another Location

Airport or City:

Astronomy

Aug. 13, 2017 Rise Set
Actual Time 6:44 AM EDT 8:12 PM EDT
Civil Twilight 6:17 AM EDT 8:39 PM EDT
Nautical Twilight 5:46 AM EDT 9:10 PM EDT
Astronomical Twilight 5:12 AM EDT 9:44 PM EDT
Moon No Moon Rise 12:26 PM EDT (8/13)
Length of Visible Light 14h 21m
Length of Day
13h 28m
Waning Gibbous, 65% of the Moon is Illuminated
Aug 13
Waning Gibbous
Aug 14
Last Quarter
Aug 21
New
Aug 29
First Quarter
Sep 6
Full

Hourly Weather History & Observations

Time (EDT) Temp. Heat Index Dew Point Humidity Pressure Visibility Wind Dir Wind Speed Gust Speed Precip Events Conditions
12:53 AM 81.0 °F 87.9 °F 77.0 °F 88% 29.93 in 10.0 mi Calm Calm - N/A   Clear
1:53 AM 80.1 °F 85.8 °F 77.0 °F 90% 29.92 in 10.0 mi Calm Calm - N/A   Clear
2:53 AM 79.0 °F - 77.0 °F 94% 29.91 in 10.0 mi Calm Calm - N/A   Clear
3:53 AM 79.0 °F - 75.9 °F 90% 29.91 in 10.0 mi Calm Calm - N/A   Clear
4:53 AM 78.1 °F - 75.9 °F 93% 29.90 in 10.0 mi Calm Calm - N/A   Clear
5:53 AM 77.0 °F - 75.0 °F 94% 29.91 in 9.0 mi Calm Calm - N/A   Clear
6:53 AM 77.0 °F - 75.0 °F 94% 29.93 in 6.0 mi Calm Calm - N/A   Mostly Cloudy
7:21 AM 78.1 °F - 75.9 °F 93% 29.95 in 7.0 mi Calm Calm - N/A   Scattered Clouds
7:32 AM 78.1 °F - 75.9 °F 93% 29.94 in 8.0 mi Calm Calm - N/A   Mostly Cloudy
7:53 AM 79.0 °F - 75.9 °F 90% 29.94 in 9.0 mi Calm Calm - N/A   Mostly Cloudy
8:02 AM 80.1 °F 85.8 °F 77.0 °F 90% 29.95 in 9.0 mi Calm Calm - N/A   Partly Cloudy
8:53 AM 82.0 °F 90.2 °F 77.0 °F 85% 29.96 in 10.0 mi Calm Calm - N/A   Clear
9:53 AM 84.9 °F 95.3 °F 77.0 °F 77% 29.96 in 10.0 mi South 3.5 mph - N/A   Clear
10:53 AM 87.1 °F 97.3 °F 75.9 °F 69% 29.96 in 10.0 mi Variable 3.5 mph - N/A   Clear
11:53 AM 90.0 °F 100.2 °F 75.0 °F 61% 29.95 in 10.0 mi Calm Calm - N/A   Partly Cloudy
12:53 PM 84.0 °F 93.7 °F 77.0 °F 79% 29.94 in 10.0 mi SE 3.5 mph - 0.04 in   Partly Cloudy
1:00 PM 82.9 °F 90.2 °F 75.0 °F 77% 29.96 in 10.0 mi Calm Calm - N/A Thunderstorm Thunderstorm
1:08 PM 82.0 °F 87.9 °F 73.9 °F 76% 29.97 in 1.8 mi Variable 3.5 mph - 0.03 in Rain , Thunderstorm Light Thunderstorms and Rain
1:12 PM 81.0 °F 86.2 °F 73.9 °F 79% 29.97 in 0.8 mi SSE 8.1 mph - 0.18 in Rain , Thunderstorm Heavy Thunderstorms and Rain
1:25 PM 78.1 °F - 75.0 °F 90% 29.96 in 1.2 mi SSE 4.6 mph - 0.36 in Rain , Thunderstorm Light Thunderstorms and Rain
1:27 PM 78.1 °F - 75.9 °F 93% 29.96 in 3.0 mi SSE 6.9 mph - 0.36 in Rain , Thunderstorm Light Thunderstorms and Rain
1:40 PM 79.0 °F - 77.0 °F 94% 29.94 in 2.5 mi Variable 3.5 mph - 0.41 in Rain , Thunderstorm Light Thunderstorms and Rain
1:53 PM 80.1 °F 85.4 °F 75.9 °F 87% 29.94 in 10.0 mi Calm Calm - 0.41 in Thunderstorm Thunderstorm
2:00 PM 80.1 °F 85.4 °F 75.9 °F 87% 29.94 in 7.0 mi Variable 3.5 mph - N/A Thunderstorm Mostly Cloudy
2:35 PM 82.0 °F 90.2 °F 77.0 °F 85% 29.95 in 10.0 mi Calm Calm - 0.01 in   Mostly Cloudy
2:53 PM 82.9 °F 91.8 °F 77.0 °F 82% 29.92 in 10.0 mi Calm Calm - 0.01 in   Scattered Clouds
3:53 PM 86.0 °F 96.9 °F 77.0 °F 74% 29.91 in 10.0 mi Variable 3.5 mph - N/A   Mostly Cloudy
4:53 PM 87.1 °F 96.3 °F 75.0 °F 67% 29.91 in 10.0 mi Variable 3.5 mph - N/A   Partly Cloudy
5:53 PM 86.0 °F 96.0 °F 75.9 °F 72% 29.90 in 10.0 mi Variable 4.6 mph - N/A Thunderstorm Thunderstorm
6:15 PM 81.0 °F 86.7 °F 75.0 °F 82% 29.92 in 1.8 mi Variable 6.9 mph - 0.06 in Rain , Thunderstorm Thunderstorms and Rain
6:18 PM 80.1 °F 84.5 °F 73.9 °F 81% 29.93 in 0.5 mi NW 20.7 mph 29.9 mph 0.27 in Rain , Thunderstorm Heavy Thunderstorms and Rain
6:33 PM 78.1 °F - 75.0 °F 90% 29.91 in 1.0 mi Calm Calm - 0.58 in Rain Rain
6:36 PM 79.0 °F - 75.9 °F 90% 29.91 in 2.0 mi Calm Calm - 0.59 in Rain Rain
6:44 PM 80.1 °F 85.8 °F 77.0 °F 90% 29.91 in 9.0 mi SE 4.6 mph - 0.59 in Rain Light Rain
6:53 PM 81.0 °F 88.6 °F 78.1 °F 91% 29.91 in 10.0 mi Variable 3.5 mph - 0.59 in   Scattered Clouds
7:53 PM 82.0 °F 91.6 °F 79.0 °F 90% 29.94 in 10.0 mi Calm Calm - N/A   Mostly Cloudy
8:53 PM 81.0 °F 88.6 °F 78.1 °F 91% 29.96 in 10.0 mi Calm Calm - N/A   Overcast
9:53 PM 80.1 °F 85.8 °F 77.0 °F 90% 29.96 in 10.0 mi Calm Calm - N/A   Mostly Cloudy
10:53 PM 79.0 °F - 77.0 °F 94% 29.96 in 9.0 mi Calm Calm - N/A   Mostly Cloudy
11:53 PM 79.0 °F - 77.0 °F 94% 29.96 in 8.0 mi Calm Calm - N/A   Clear